QPF
0.03 0.03 0.03 0.03 0.03 0.04 0.05 0.06 0.07 0.08 0.08 0.07 0.07 0.08 0.08 0.08 0.08 0.08 0.06 0.07 0.07 0.06 0.06 0.06 0.06 0.07 0.08 0.07 0.08 0.09 0.09 0.07 0.06 0.06 0.06 0.05 0.04 0.04
0.02 0.02 0.02 0.03 0.03 0.03 0.04 0.05 0.06 0.07 0.06 0.05 0.04 0.05 0.06 0.08 0.09 0.08 0.07 0.08 0.07 0.06 0.06 0.06 0.07 0.07 0.09 0.10 0.09 0.07 0.07 0.06 0.05 0.05 0.06 0.06 0.06 0.05
0.04 0.04 0.04 0.04 0.04 0.04 0.05 0.05 0.06 0.06 0.06 0.04 0.03 0.04 0.05 0.05 0.06 0.08 0.09 0.09 0.08 0.09 0.07 0.07 0.07 0.08 0.08 0.08 0.09 0.09 0.06 0.05 0.05 0.04 0.05 0.05 0.05 0.05
0.05 0.05 0.05 0.05 0.05 0.06 0.06 0.06 0.06 0.06 0.05 0.04 0.04 0.04 0.04 0.05 0.06 0.07 0.09 0.11 0.10 0.09 0.08 0.07 0.07 0.07 0.08 0.08 0.08 0.08 0.07 0.05 0.05 0.04 0.04 0.04 0.04 0.05
0.03 0.04 0.04 0.04 0.05 0.05 0.05 0.05 0.06 0.06 0.06 0.05 0.04 0.04 0.05 0.06 0.07 0.07 0.07 0.09 0.09 0.09 0.08 0.08 0.07 0.07 0.08 0.09 0.09 0.08 0.07 0.05 0.04 0.04 0.04 0.04 0.04 0.04
0.01 0.02 0.02 0.03 0.04 0.04 0.04 0.04 0.04 0.05 0.06 0.06 0.06 0.06 0.06 0.06 0.06 0.07 0.07 0.07 0.07 0.07 0.09 0.08 0.08 0.08 0.08 0.09 0.09 0.09 0.08 0.06 0.05 0.05 0.05 0.05 0.04 0.04
0.00 0.01 0.01 0.01 0.02 0.02 0.02 0.03 0.03 0.03 0.04 0.05 0.06 0.06 0.06 0.07 0.07 0.07 0.07 0.07 0.07 0.07 0.08 0.08 0.07 0.08 0.08 0.09 0.09 0.09 0.09 0.09 0.08 0.07 0.06 0.06 0.05 0.05
0.00 0.00 0.01 0.01 0.01 0.01 0.02 0.02 0.03 0.03 0.03 0.04 0.04 0.05 0.05 0.05 0.06 0.07 0.07 0.08 0.08 0.07 0.08 0.08 0.07 0.07 0.06 0.06 0.08 0.09 0.09 0.10 0.09 0.09 0.08 0.08 0.08 0.07
0.00 0.00 0.00 0.00 0.00 0.00 0.01 0.01 0.02 0.03 0.03 0.03 0.03 0.03 0.03 0.03 0.04 0.06 0.06 0.07 0.07 0.06 0.08 0.09 0.08 0.09 0.06 0.06 0.07 0.07 0.08 0.09 0.10 0.09 0.09 0.08 0.08 0.09
0.00 0.00 0.00 0.00 0.01 0.01 0.01 0.01 0.01 0.02 0.02 0.02 0.03 0.03 0.03 0.03 0.04 0.05 0.06 0.07 0.07 0.07 0.08 0.10 0.08 0.08 0.07 0.07 0.08 0.08 0.08 0.09 0.10 0.10 0.10 0.09 0.08 0.09
0.01 0.01 0.01 0.01 0.02 0.02 0.02 0.02 0.02 0.02 0.03 0.03 0.03 0.03 0.04 0.04 0.04 0.04 0.05 0.06 0.06 0.06 0.06 0.08 0.07 0.07 0.07 0.08 0.08 0.09 0.08 0.09 0.11 0.11 0.11 0.10 0.10 0.10
0.01 0.01 0.01 0.01 0.02 0.02 0.02 0.02 0.02 0.02 0.02 0.03 0.03 0.03 0.03 0.03 0.03 0.03 0.04 0.05 0.05 0.05 0.04 0.06 0.06 0.07 0.09 0.08 0.07 0.07 0.09 0.10 0.11 0.12 0.12 0.12 0.12 0.13
0.00 0.00 0.00 0.00 0.01 0.01 0.01 0.01 0.01 0.02 0.02 0.01 0.01 0.01 0.01 0.01 0.02 0.02 0.03 0.04 0.05 0.04 0.03 0.05 0.07 0.08 0.09 0.09 0.08 0.08 0.08 0.10 0.11 0.13 0.14 0.14 0.15 0.14
0.00 0.00 0.00 0.00 0.00 0.00 0.00 0.00 0.01 0.01 0.01 0.00 0.00 0.00 0.00 0.00 0.01 0.01 0.02 0.02 0.03 0.03 0.03 0.04 0.08 0.09 0.10 0.10 0.08 0.08 0.09 0.09 0.10 0.12 0.12 0.15 0.17 0.16
0.00 0.00 0.00 0.00 0.00 0.00 0.00 0.00 0.00 0.00 0.01 0.01 0.01 0.00 0.00 0.00 0.01 0.01 0.01 0.02 0.02 0.02 0.03 0.04 0.06 0.08 0.10 0.11 0.09 0.07 0.09 0.11 0.11 0.12 0.12 0.13 0.14 0.16
0.00 0.00 0.00 0.00 0.00 0.00 0.00 0.00 0.00 0.01 0.01 0.02 0.01 0.01 0.01 0.01 0.01 0.01 0.01 0.02 0.02 0.02 0.02 0.03 0.05 0.07 0.10 0.10 0.10 0.09 0.09 0.11 0.11 0.11 0.12 0.12 0.11 0.11
0.01 0.01 0.00 0.00 0.00 0.00 0.00 0.00 0.00 0.00 0.01 0.01 0.01 0.01 0.01 0.01 0.01 0.01 0.01 0.02 0.03 0.02 0.02 0.03 0.03 0.05 0.08 0.09 0.09 0.10 0.10 0.11 0.11 0.12 0.14 0.14 0.13 0.12
0.01 0.01 0.00 0.00 0.00 0.00 0.00 0.00 0.00 0.00 0.01 0.01 0.01 0.02 0.02 0.02 0.02 0.02 0.02 0.03 0.03 0.02 0.02 0.03 0.03 0.05 0.07 0.08 0.08 0.09 0.10 0.10 0.11 0.14 0.15 0.15 0.14 0.12
0.01 0.00 0.00 0.00 0.00 0.00 0.00 0.00 0.00 0.01 0.01 0.01 0.02 0.02 0.02 0.02 0.02 0.03 0.03 0.03 0.03 0.02 0.02 0.03 0.04 0.06 0.07 0.07 0.06 0.07 0.09 0.10 0.12 0.14 0.15 0.14 0.12 0.10
0.00 0.00 0.00 0.00 0.00 0.01 0.01 0.01 0.01 0.01 0.01 0.01 0.02 0.02 0.02 0.03 0.02 0.03 0.03 0.03 0.03 0.03 0.02 0.03 0.04 0.05 0.06 0.06 0.06 0.05 0.07 0.09 0.11 0.12 0.13 0.13 0.12 0.13
0.00 0.00 0.00 0.00 0.01 0.01 0.01 0.01 0.01 0.01 0.01 0.01 0.02 0.02 0.02 0.02 0.03 0.02 0.03 0.03 0.03 0.04 0.03 0.03 0.03 0.04 0.06 0.07 0.07 0.07 0.08 0.09 0.10 0.11 0.11 0.13 0.14 0.15
0.00 0.01 0.01 0.01 0.01 0.01 0.01 0.01 0.01 0.01 0.01 0.02 0.02 0.02 0.02 0.02 0.03 0.03 0.04 0.04 0.04 0.04 0.04 0.03 0.04 0.05 0.06 0.07 0.06 0.06 0.07 0.10 0.11 0.12 0.12 0.13 0.12 0.10
0.01 0.01 0.01 0.01 0.01 0.01 0.01 0.01 0.01 0.01 0.01 0.02 0.02 0.02 0.02 0.02 0.02 0.03 0.04 0.04 0.04 0.04 0.04 0.04 0.04 0.05 0.06 0.06 0.06 0.06 0.07 0.08 0.10 0.11 0.12 0.11 0.10 0.08
MSLP
1017.62 1017.35 1017.02 1016.62 1016.15 1015.62 1015.07 1014.52 1014.02 1013.61 1013.30 1013.09 1012.96 1012.87 1012.77 1012.61 1012.33 1011.92 1011.37 1010.70 1009.95 1009.18 1008.42 1007.74 1007.15 1006.68 1006.33 1006.09 1005.94 1005.87 1005.87 1005.93 1006.06 1006.27 1006.56 1006.93 1007.38 1007.90
1018.11 1017.91 1017.66 1017.33 1016.93 1016.46 1015.96 1015.45 1014.98 1014.57 1014.25 1014.01 1013.84 1013.70 1013.54 1013.30 1012.96 1012.48 1011.86 1011.13 1010.32 1009.47 1008.64 1007.87 1007.19 1006.61 1006.13 1005.76 1005.47 1005.26 1005.12 1005.06 1005.09 1005.20 1005.43 1005.75 1006.18 1006.70
1018.31 1018.17 1017.97 1017.72 1017.39 1017.00 1016.56 1016.12 1015.69 1015.31 1015.00 1014.75 1014.55 1014.36 1014.14 1013.85 1013.45 1012.91 1012.25 1011.48 1010.63 1009.74 1008.87 1008.04 1007.28 1006.61 1006.02 1005.51 1005.08 1004.73 1004.44 1004.25 1004.15 1004.16 1004.30 1004.57 1004.96 1005.45
1018.29 1018.18 1018.03 1017.83 1017.57 1017.25 1016.88 1016.50 1016.12 1015.78 1015.48 1015.23 1015.01 1014.78 1014.52 1014.18 1013.73 1013.16 1012.48 1011.69 1010.83 1009.94 1009.04 1008.18 1007.37 1006.62 1005.93 1005.31 1004.75 1004.25 1003.82 1003.49 1003.26 1003.16 1003.20 1003.39 1003.73 1004.19
1018.14 1018.04 1017.91 1017.74 1017.53 1017.26 1016.95 1016.62 1016.29 1015.97 1015.68 1015.42 1015.18 1014.92 1014.62 1014.25 1013.79 1013.21 1012.52 1011.75 1010.91 1010.03 1009.14 1008.26 1007.42 1006.62 1005.85 1005.13 1004.45 1003.82 1003.26 1002.79 1002.43 1002.21 1002.15 1002.25 1002.52 1002.92
1017.94 1017.83 1017.70 1017.54 1017.35 1017.11 1016.83 1016.52 1016.21 1015.90 1015.62 1015.35 1015.08 1014.80 1014.48 1014.10 1013.63 1013.06 1012.41 1011.67 1010.86 1010.02 1009.15 1008.29 1007.43 1006.59 1005.77 1004.96 1004.18 1003.44 1002.76 1002.17 1001.69 1001.35 1001.18 1001.19 1001.36 1001.69
1017.75 1017.61 1017.47 1017.30 1017.10 1016.85 1016.57 1016.27 1015.95 1015.64 1015.33 1015.04 1014.75 1014.46 1014.13 1013.75 1013.30 1012.77 1012.16 1011.48 1010.73 1009.94 1009.12 1008.28 1007.42 1006.56 1005.69 1004.82 1003.96 1003.13 1002.35 1001.65 1001.06 1000.62 1000.33 1000.22 1000.29 1000.53
1017.58 1017.41 1017.24 1017.04 1016.82 1016.55 1016.24 1015.91 1015.57 1015.22 1014.89 1014.57 1014.26 1013.96 1013.63 1013.27 1012.86 1012.39 1011.84 1011.23 1010.55 1009.83 1009.05 1008.24 1007.40 1006.53 1005.64 1004.72 1003.81 1002.91 1002.05 1001.26 1000.58 1000.03 999.63 999.41 999.36 999.48
1017.42 1017.22 1017.01 1016.78 1016.52 1016.21 1015.86 1015.49 1015.10 1014.72 1014.35 1014.00 1013.68 1013.37 1013.06 1012.74 1012.38 1011.97 1011.50 1010.96 1010.36 1009.70 1008.98 1008.21 1007.39 1006.52 1005.61 1004.68 1003.73 1002.79 1001.87 1001.02 1000.26 999.61 999.11 998.77 998.60 998.60
1017.22 1016.99 1016.76 1016.49 1016.19 1015.85 1015.46 1015.04 1014.60 1014.18 1013.77 1013.40 1013.06 1012.76 1012.47 1012.19 1011.88 1011.54 1011.15 1010.69 1010.16 1009.56 1008.90 1008.16 1007.37 1006.51 1005.61 1004.68 1003.71 1002.75 1001.81 1000.91 1000.09 999.36 998.76 998.31 998.02 997.89
1016.94 1016.70 1016.45 1016.17 1015.84 1015.46 1015.03 1014.57 1014.10 1013.64 1013.20 1012.81 1012.46 1012.17 1011.91 1011.66 1011.41 1011.13 1010.80 1010.41 1009.94 1009.40 1008.77 1008.08 1007.31 1006.48 1005.60 1004.68 1003.73 1002.77 1001.82 1000.90 1000.04 999.26 998.58 998.02 997.62 997.37
1016.57 1016.33 1016.08 1015.79 1015.45 1015.05 1014.61 1014.12 1013.62 1013.13 1012.67 1012.26 1011.91 1011.62 1011.38 1011.16 1010.95 1010.71 1010.43 1010.09 1009.67 1009.16 1008.58 1007.91 1007.17 1006.37 1005.52 1004.63 1003.71 1002.78 1001.85 1000.94 1000.06 999.24 998.50 997.87 997.37 997.01
1016.13 1015.90 1015.66 1015.38 1015.04 1014.64 1014.19 1013.69 1013.18 1012.67 1012.20 1011.78 1011.43 1011.14 1010.90 1010.69 1010.50 1010.29 1010.03 1009.71 1009.31 1008.83 1008.27 1007.62 1006.92 1006.15 1005.34 1004.49 1003.62 1002.73 1001.83 1000.95 1000.08 999.25 998.48 997.79 997.22 996.78
1015.66 1015.45 1015.23 1014.96 1014.64 1014.25 1013.80 1013.31 1012.79 1012.28 1011.80 1011.37 1011.00 1010.70 1010.46 1010.25 1010.05 1009.83 1009.57 1009.25 1008.85 1008.37 1007.82 1007.19 1006.50 1005.77 1005.00 1004.20 1003.39 1002.55 1001.71 1000.87 1000.03 999.22 998.44 997.73 997.12 996.63
1015.20 1015.01 1014.81 1014.57 1014.26 1013.89 1013.45 1012.97 1012.45 1011.94 1011.45 1011.01 1010.63 1010.31 1010.04 1009.81 1009.58 1009.33 1009.05 1008.70 1008.28 1007.79 1007.23 1006.60 1005.93 1005.23 1004.49 1003.75 1002.99 1002.22 1001.44 1000.65 999.86 999.08 998.33 997.63 997.02 996.52
1014.80 1014.63 1014.44 1014.22 1013.93 1013.57 1013.14 1012.66 1012.15 1011.64 1011.14 1010.68 1010.28 1009.94 1009.63 1009.36 1009.08 1008.79 1008.46 1008.07 1007.61 1007.09 1006.51 1005.88 1005.21 1004.52 1003.83 1003.12 1002.42 1001.71 1000.99 1000.27 999.54 998.82 998.11 997.45 996.87 996.40
1014.47 1014.32 1014.14 1013.92 1013.64 1013.28 1012.86 1012.38 1011.86 1011.34 1010.83 1010.36 1009.93 1009.55 1009.21 1008.88 1008.56 1008.21 1007.82 1007.38 1006.87 1006.31 1005.70 1005.05 1004.38 1003.70 1003.03 1002.36 1001.70 1001.04 1000.38 999.72 999.06 998.40 997.77 997.17 996.65 996.24
1014.22 1014.07 1013.89 1013.67 1013.37 1013.00 1012.57 1012.07 1011.55 1011.01 1010.49 1009.99 1009.54 1009.12 1008.74 1008.36 1007.98 1007.58 1007.13 1006.63 1006.08 1005.47 1004.83 1004.16 1003.48 1002.80 1002.13 1001.49 1000.86 1000.25 999.64 999.04 998.44 997.86 997.30 996.79 996.35 996.03
1014.03 1013.87 1013.68 1013.43 1013.10 1012.70 1012.24 1011.72 1011.17 1010.62 1010.08 1009.56 1009.07 1008.62 1008.20 1007.78 1007.35 1006.89 1006.39 1005.84 1005.24 1004.60 1003.92 1003.23 1002.54 1001.86 1001.20 1000.56 999.96 999.37 998.81 998.26 997.72 997.21 996.74 996.32 995.98 995.75
1013.86 1013.69 1013.47 1013.17 1012.81 1012.36 1011.85 1011.30 1010.72 1010.14 1009.56 1009.02 1008.51 1008.03 1007.56 1007.10 1006.63 1006.13 1005.59 1005.00 1004.37 1003.70 1003.00 1002.29 1001.59 1000.90 1000.25 999.62 999.03 998.47 997.93 997.43 996.95 996.50 996.11 995.78 995.55 995.42
1013.71 1013.50 1013.24 1012.89 1012.46 1011.96 1011.40 1010.79 1010.17 1009.55 1008.95 1008.37 1007.83 1007.31 1006.82 1006.32 1005.81 1005.28 1004.71 1004.09 1003.44 1002.76 1002.05 1001.34 1000.64 999.96 999.31 998.69 998.11 997.57 997.06 996.59 996.16 995.78 995.46 995.22 995.08 995.05
1013.54 1013.30 1012.97 1012.56 1012.06 1011.49 1010.87 1010.21 1009.54 1008.87 1008.23 1007.62 1007.04 1006.49 1005.96 1005.43 1004.89 1004.33 1003.74 1003.12 1002.46 1001.78 1001.08 1000.38 999.70 999.03 998.40 997.80 997.24 996.72 996.24 995.80 995.41 995.08 994.83 994.66 994.60 994.67
1013.34 1013.05 1012.66 1012.18 1011.62 1010.98 1010.29 1009.57 1008.84 1008.13 1007.44 1006.79 1006.17 1005.58 1005.01 1004.45 1003.88 1003.30 1002.70 1002.07 1001.42 1000.76 1000.09 999.42 998.77 998.14 997.53 996.96 996.43 995.94 995.49 995.08 994.74 994.45 994.25 994.15 994.16 994.29
Thickness
5508 5508 5510 5511 5513 5514 5516 5518 5520 5528 5537 5542 5543 5545 5546 5548 5552 5555 5560 5564 5565 5568 5572 5574 5577 5579 5582 5584 5586 5587 5588 5591 5591 5592 5592 5591 5592 5592
5496 5496 5497 5498 5500 5502 5503 5505 5507 5511 5519 5527 5528 5529 5531 5533 5537 5541 5546 5550 5554 5557 5560 5563 5565 5568 5571 5574 5576 5578 5580 5582 5583 5584 5584 5584 5585 5585
5482 5483 5483 5484 5485 5487 5488 5491 5493 5495 5501 5509 5511 5513 5515 5518 5522 5527 5532 5536 5541 5544 5548 5551 5554 5557 5560 5562 5565 5567 5570 5572 5574 5575 5576 5577 5577 5578
5468 5469 5469 5470 5470 5471 5473 5475 5477 5479 5483 5490 5495 5497 5500 5503 5507 5512 5517 5521 5526 5530 5534 5538 5541 5544 5547 5550 5553 5556 5559 5562 5564 5566 5567 5569 5569 5570
5455 5455 5456 5456 5456 5457 5458 5459 5461 5464 5466 5470 5477 5481 5484 5487 5491 5496 5500 5505 5510 5514 5519 5524 5527 5531 5534 5537 5540 5544 5547 5551 5553 5555 5558 5560 5561 5562
5443 5443 5442 5442 5443 5443 5444 5444 5445 5447 5449 5453 5459 5463 5466 5470 5473 5478 5484 5489 5493 5498 5503 5507 5511 5515 5519 5523 5527 5531 5535 5538 5541 5545 5548 5551 5552 5554
5431 5430 5429 5429 5430 5430 5430 5430 5430 5431 5433 5435 5440 5444 5447 5450 5454 5458 5464 5471 5477 5481 5486 5491 5496 5501 5505 5509 5513 5518 5522 5526 5530 5533 5537 5541 5543 5545
5418 5417 5417 5416 5416 5416 5416 5416 5416 5415 5416 5418 5421 5424 5428 5430 5434 5438 5443 5450 5459 5465 5467 5474 5479 5485 5490 5495 5500 5504 5508 5512 5517 5521 5525 5529 5533 5536
5406 5405 5404 5403 5403 5402 5402 5402 5401 5400 5400 5401 5403 5406 5409 5413 5416 5421 5425 5429 5437 5443 5446 5457 5463 5469 5475 5480 5485 5490 5494 5498 5503 5508 5513 5517 5521 5525
5395 5393 5392 5390 5389 5389 5389 5389 5387 5386 5385 5387 5388 5390 5392 5395 5398 5403 5407 5413 5420 5424 5427 5435 5445 5451 5458 5464 5469 5474 5479 5484 5489 5494 5498 5504 5508 5513
5384 5382 5380 5378 5378 5378 5377 5375 5375 5374 5373 5373 5374 5376 5378 5381 5383 5385 5389 5393 5402 5409 5410 5414 5424 5430 5439 5447 5453 5458 5463 5468 5474 5479 5484 5489 5494 5500
5373 5371 5369 5368 5367 5366 5363 5362 5361 5361 5361 5362 5361 5361 5362 5364 5366 5367 5370 5373 5380 5389 5394 5395 5403 5407 5419 5431 5436 5441 5447 5453 5459 5465 5471 5477 5482 5486
5363 5360 5357 5356 5355 5353 5351 5349 5348 5348 5348 5347 5347 5348 5348 5349 5351 5352 5353 5356 5361 5369 5375 5376 5383 5388 5395 5410 5420 5426 5432 5439 5445 5451 5456 5463 5469 5474
5352 5349 5347 5345 5344 5342 5339 5337 5336 5335 5333 5332 5333 5333 5334 5334 5336 5338 5340 5343 5346 5352 5358 5360 5366 5372 5379 5390 5401 5411 5418 5425 5431 5438 5443 5449 5455 5462
5342 5340 5338 5335 5332 5329 5326 5325 5323 5320 5319 5318 5319 5319 5319 5320 5322 5325 5328 5332 5336 5341 5345 5348 5352 5358 5364 5374 5386 5394 5403 5412 5418 5424 5430 5435 5441 5447
5333 5330 5327 5323 5320 5317 5315 5311 5309 5307 5306 5305 5305 5306 5307 5308 5310 5312 5315 5320 5325 5332 5335 5337 5341 5346 5354 5363 5371 5382 5389 5397 5406 5411 5417 5424 5429 5435
5325 5320 5316 5312 5309 5306 5303 5300 5297 5296 5295 5294 5294 5294 5296 5297 5299 5300 5302 5307 5311 5317 5323 5327 5331 5337 5344 5352 5361 5371 5378 5386 5393 5398 5404 5411 5419 5426
5316 5310 5306 5302 5298 5295 5292 5290 5287 5286 5284 5283 5283 5282 5283 5284 5287 5289 5291 5294 5298 5304 5308 5313 5318 5326 5335 5345 5353 5360 5367 5375 5382 5387 5393 5400 5409 5416
5304 5299 5295 5291 5287 5284 5281 5279 5277 5276 5274 5273 5272 5272 5272 5273 5275 5278 5281 5284 5288 5292 5297 5301 5306 5313 5323 5335 5346 5351 5357 5364 5370 5377 5383 5390 5399 5406
5294 5289 5285 5281 5277 5274 5272 5270 5268 5267 5265 5264 5264 5263 5263 5264 5266 5268 5271 5274 5278 5283 5288 5293 5298 5304 5312 5322 5332 5342 5347 5354 5360 5367 5373 5379 5386 5393
5284 5280 5276 5272 5268 5266 5263 5261 5260 5259 5258 5257 5257 5257 5256 5257 5259 5261 5264 5268 5272 5276 5282 5288 5293 5299 5305 5312 5322 5334 5341 5346 5353 5358 5364 5368 5374 5380
5276 5271 5268 5264 5261 5258 5256 5255 5254 5253 5252 5251 5251 5251 5251 5251 5253 5255 5258 5262 5266 5270 5276 5282 5288 5293 5299 5307 5316 5324 5331 5338 5344 5351 5356 5363 5369 5376
5267 5264 5260 5257 5254 5251 5250 5249 5247 5247 5246 5245 5245 5246 5246 5247 5249 5251 5254 5257 5261 5265 5270 5276 5282 5288 5294 5301 5308 5315 5322 5329 5336 5342 5348 5355 5363 5370